Retour au catalogue

SL-19 DEB

ActifUNKNOWN
NORAD 23485·DEBRIS·🇷🇺 Russia

Lancé Dec 26, 1994 depuis Baikonur Cosmodrome

Loading…

Prochains Passages (prochaines 24 heures)

TLE

FraisSource: Space-Track

Époque: Sep 14, 2026, 07:54 UTC

1 23485U 94085H   26257.32949130 -.00005329  00000-0 -14511+0 0  9993
2 23485  64.6384  29.1404 0173431 174.2474 186.0495 11.29952869307367

Suivez SL-19 DEB en temps réel avec AllMySat

Download on the App Store